DW3546 Weather Reports


Display with metric or nautical units.
time (UTC)temp
F
wind
direction
speed
MPH
gust
MPH
rain 1hr
in
rain 24hr
in
rain mn
in
humidity
%
barometer
mb
20190223062016 38 0.0 0.0 0.00 0.00 0.00 62 1021.8
20190223061016 38 0.0 0.0 0.00 0.00 0.00 62 1021.8
20190223060015 38 0.0 0.0 0.00 0.00 0.00 63 1021.6
20190223055016 38 0.0 0.0 0.00 0.00 0.00 63 1021.5
20190223054016 38 0.0 1.0 0.00 0.00 0.00 63 1021.3
20190223053016 38 0.0 0.0 0.00 0.00 0.00 62 1021.3
20190223052016 39 0.0 0.0 0.00 0.00 0.00 61 1021.1
20190223051015 39 0.0 0.0 0.00 0.00 0.00 61 1021.0
20190223050016 39 0.0 0.0 0.00 0.00 0.00 61 1020.8
20190223045016 39 0.0 0.0 0.00 0.00 0.00 61 1020.8
20190223044016 39 0.0 0.0 0.00 0.00 0.00 61 1020.7
20190223043016 39 0.0 0.0 0.00 0.00 0.00 61 1020.6
20190223042016 39 0.0 0.0 0.00 0.00 0.00 61 1020.4
20190223041016 39 0.0 0.0 0.00 0.00 0.00 61 1020.4
20190223040016 39 0.0 0.0 0.00 0.00 0.00 60 1020.3
20190223035016 39 0.0 0.0 0.00 0.00 0.00 60 1020.0
20190223034016 39 0.0 0.0 0.00 0.00 0.00 60 1020.1
20190223033016 39 0.0 0.0 0.00 0.00 0.00 60 1019.9
20190223032016 39 0.0 0.0 0.00 0.00 0.00 60 1019.7
20190223031016 40 0.0 1.0 0.00 0.00 0.00 60 1019.6
20190223030015 40 0.0 1.0 0.00 0.00 0.00 57 1019.6
20190223025015 41 0.0 1.0 0.00 0.00 0.00 55 1019.5
20190223024015 41 0.0 1.0 0.00 0.00 0.00 55 1019.4
20190223023015 41 0.0 1.0 0.00 0.00 0.00 54 1019.4
20190223022016 41 0.0 1.0 0.00 0.00 0.00 54 1019.2
20190223021016 41 0.0 1.0 0.00 0.00 0.00 51 1019.1
20190223020016 42 0.0 1.0 0.00 0.00 0.00 50 1019.2
20190223015015 43 0.0 3.0 0.00 0.00 0.00 45 1019.1
20190223014015 44 90 1.0 3.0 0.00 0.00 0.00 43 1019.1
20190223013015 45 0.0 2.0 0.00 0.00 0.00 41 1019.1
20190223012016 46 0.0 2.0 0.00 0.00 0.00 40 1019.2
20190223011015 46 0.0 4.0 0.00 0.00 0.00 39 1019.2
20190223010016 46 0.0 3.0 0.00 0.00 0.00 37 1019.1
20190223005015 46 337 1.0 4.0 0.00 0.00 0.00 36 1019.1
20190223004016 46 337 1.0 3.0 0.00 0.00 0.00 34 1019.0
20190223003015 46 337 1.0 3.0 0.00 0.00 0.00 33 1018.8
20190223002015 47 337 1.0 3.0 0.00 0.00 0.00 33 1018.8
20190223001015 47 0.0 2.0 0.00 0.00 0.00 33 1018.7
20190223000015 47 337 1.0 4.0 0.00 0.00 0.00 35 1018.5
20190222235015 47 22 2.0 5.0 0.00 0.00 0.00 34 1018.4
20190222234015 47 22 2.0 4.0 0.00 0.00 0.00 33 1018.5
20190222233015 47 22 1.0 3.0 0.00 0.00 0.00 35 1018.5
20190222232016 47 0 1.0 5.0 0.00 0.00 0.00 33 1018.5
20190222231015 47 45 2.0 5.0 0.00 0.00 0.00 35 1018.4
20190222230015 46 337 2.0 6.0 0.00 0.00 0.00 35 1018.3
20190222225015 46 67 3.0 8.0 0.00 0.00 0.00 34 1018.3
20190222224015 46 45 2.0 6.0 0.00 0.00 0.00 35 1018.1
20190222223015 47 22 2.0 5.0 0.00 0.00 0.00 35 1018.2
20190222222015 47 22 2.0 5.0 0.00 0.00 0.00 36 1018.2
20190222221015 47 0 1.0 4.0 0.00 0.00 0.00 36 1018.1
20190222220015 46 22 2.0 7.0 0.00 0.00 0.00 34 1017.9
20190222215015 46 22 2.0 5.0 0.00 0.00 0.00 36 1018.0
20190222214015 45 0 2.0 7.0 0.00 0.00 0.00 38 1018.0
20190222213015 45 337 3.0 6.0 0.00 0.00 0.00 36 1018.1
20190222212017 45 22 2.0 5.0 0.00 0.00 0.00 38 1018.1
20190222211019 44 22 3.0 6.0 0.00 0.00 0.00 37 1018.0
20190222210017 44 45 3.0 6.0 0.00 0.00 0.00 39 1018.0
20190222205017 44 337 2.0 6.0 0.00 0.00 0.00 39 1018.2
20190222204017 44 337 2.0 5.0 0.00 0.00 0.00 38 1018.1
20190222203017 43 0 2.0 4.0 0.00 0.00 0.00 40 1018.2
20190222202017 43 45 1.0 4.0 0.00 0.00 0.00 39 1018.2
20190222201017 43 45 2.0 4.0 0.00 0.00 0.00 39 1018.1
20190222200017 43 45 1.0 4.0 0.00 0.00 0.00 39 1018.1
20190222195017 43 67 1.0 5.0 0.00 0.00 0.00 41 1018.0
20190222194015 42 292 1.0 4.0 0.00 0.00 0.00 41 1018.2
20190222193018 42 315 2.0 5.0 0.00 0.00 0.00 41 1017.9
20190222192017 41 337 1.0 3.0 0.00 0.00 0.00 43 1017.9
20190222191017 40 0 2.0 4.0 0.00 0.00 0.00 41 1017.9
20190222190017 40 337 1.0 3.0 0.00 0.00 0.00 40 1018.0
20190222185017 40 337 2.0 4.0 0.00 0.00 0.00 40 1018.0
20190222184017 40 315 1.0 3.0 0.00 0.00 0.00 43 1017.8
20190222183017 39 315 2.0 6.0 0.00 0.00 0.00 43 1017.8
20190222182017 39 292 1.0 4.0 0.00 0.00 0.00 44 1017.7
20190222181017 39 292 2.0 5.0 0.00 0.00 0.00 44 1017.4
20190222180017 38 0 1.0 4.0 0.00 0.00 0.00 45 1017.3
20190222175017 38 0.0 3.0 0.00 0.00 0.00 47 1017.1
20190222174017 37 315 1.0 3.0 0.00 0.00 0.00 47 1017.2
20190222173017 36 315 1.0 2.0 0.00 0.00 0.00 48 1017.3
20190222172017 36 0.0 3.0 0.00 0.00 0.00 49 1017.2
20190222171017 35 0 1.0 3.0 0.00 0.00 0.00 50 1017.0
20190222170017 35 337 1.0 4.0 0.00 0.00 0.00 50 1016.9
20190222165017 34 337 1.0 4.0 0.00 0.00 0.00 50 1016.8
20190222164017 34 0.0 4.0 0.00 0.00 0.00 50 1016.8
20190222163016 34 0.0 2.0 0.00 0.00 0.00 49 1016.7
20190222162017 34 292 1.0 3.0 0.00 0.00 0.00 49 1016.6
20190222161016 34 292 1.0 4.0 0.00 0.00 0.00 51 1016.6
20190222160017 34 292 1.0 3.0 0.00 0.00 0.00 50 1016.4
20190222155016 34 292 1.0 3.0 0.00 0.00 0.00 47 1016.3
20190222154017 34 270 1.0 5.0 0.00 0.00 0.00 49 1016.0
20190222153017 33 270 1.0 3.0 0.00 0.00 0.00 51 1015.9
20190222152016 33 270 2.0 5.0 0.00 0.00 0.00 52 1015.6
20190222151017 33 270 2.0 5.0 0.00 0.00 0.00 52 1015.6
20190222150016 33 270 1.0 4.0 0.00 0.00 0.00 52 1015.4
20190222145016 32 0.0 2.0 0.00 0.00 0.00 54 1015.2
20190222144016 33 0.0 2.0 0.00 0.00 0.00 53 1015.0
20190222143016 33 0.0 2.0 0.00 0.00 0.00 55 1015.2
20190222142016 32 247 1.0 2.0 0.00 0.00 0.00 55 1015.1
20190222141017 33 270 2.0 5.0 0.00 0.00 0.00 54 1015.0
20190222140016 33 292 1.0 3.0 0.00 0.00 0.00 53 1014.9
20190222135016 33 22 2.0 3.0 0.00 0.00 0.00 53 1014.7
20190222134016 33 0.0 1.0 0.00 0.00 0.00 55 1014.8
20190222133016 33 45 1.0 2.0 0.00 0.00 0.00 54 1014.7
20190222132017 33 0.0 2.0 0.00 0.00 0.00 52 1014.9
20190222131017 34 315 1.0 3.0 0.00 0.00 0.00 51 1015.0
20190222130016 34 315 1.0 3.0 0.00 0.00 0.00 52 1014.9
20190222125017 34 315 1.0 4.0 0.00 0.00 0.00 52 1014.8
20190222124016 34 292 1.0 4.0 0.00 0.00 0.00 53 1014.6
20190222123016 34 270 2.0 6.0 0.00 0.00 0.00 53 1014.5
20190222122016 34 292 1.0 8.0 0.00 0.00 0.00 53 1014.3
20190222121016 34 337 1.0 3.0 0.00 0.00 0.00 53 1014.3
20190222120016 34 337 1.0 4.0 0.00 0.00 0.00 53 1014.2
20190222115016 34 270 2.0 5.0 0.00 0.00 0.00 53 1014.4
20190222114016 34 0 1.0 4.0 0.00 0.00 0.00 53 1014.1
20190222113016 34 315 2.0 8.0 0.00 0.00 0.00 52 1014.0
20190222112016 34 270 2.0 4.0 0.00 0.00 0.00 53 1014.1
20190222111017 34 315 1.0 5.0 0.00 0.00 0.00 54 1013.9
20190222110016 34 292 2.0 5.0 0.00 0.00 0.00 55 1013.7
20190222105016 34 292 1.0 5.0 0.00 0.00 0.00 55 1013.7
20190222104016 35 315 2.0 7.0 0.00 0.00 0.00 54 1013.5
20190222103017 35 270 2.0 6.0 0.00 0.00 0.00 55 1013.4
20190222102016 35 270 2.0 5.0 0.00 0.00 0.00 55 1013.4
20190222101017 35 67 1.0 4.0 0.00 0.00 0.00 54 1013.4
20190222100016 35 337 1.0 5.0 0.00 0.00 0.00 54 1013.1
20190222095016 35 67 2.0 8.0 0.00 0.00 0.00 54 1012.9
20190222094017 35 90 1.0 7.0 0.00 0.00 0.00 54 1013.1
20190222093016 35 292 2.0 6.0 0.00 0.00 0.00 54 1013.2
20190222092016 35 315 2.0 6.0 0.00 0.00 0.00 56 1012.9
20190222091016 35 292 2.0 7.0 0.00 0.00 0.00 56 1012.7
20190222090017 36 135 1.0 4.0 0.00 0.00 0.00 56 1012.6
20190222085016 36 67 2.0 5.0 0.00 0.00 0.00 55 1012.6
20190222084017 36 315 3.0 8.0 0.00 0.00 0.00 54 1012.5
20190222083017 36 0 2.0 10.0 0.00 0.00 0.00 54 1012.5
20190222082016 37 337 2.0 7.0 0.00 0.00 0.00 54 1012.2
20190222081016 37 0 4.0 12.0 0.00 0.00 0.00 53 1012.0
20190222080016 37 0 2.0 6.0 0.00 0.00 0.00 53 1012.0
20190222075016 37 292 2.0 8.0 0.00 0.00 0.00 53 1012.0
20190222074017 37 292 3.0 8.0 0.00 0.00 0.00 53 1011.9
20190222073016 37 315 2.0 6.0 0.00 0.00 0.00 54 1011.6
20190222072017 37 292 2.0 6.0 0.00 0.00 0.00 53 1011.5
20190222071020 37 45 2.0 5.0 0.00 0.00 0.00 53 1011.5
20190222070016 37 337 2.0 6.0 0.00 0.00 0.00 53 1011.3
20190222065018 38 337 2.0 7.0 0.00 0.00 0.00 52 1011.0
20190222064017 38 315 3.0 8.0 0.00 0.00 0.00 50 1010.9
20190222063017 38 22 2.0 6.0 0.00 0.00 0.00 51 1010.7